Pineville, WV

9:18 AM EST on December 11, 2019 (GMT -0500)
Pineville

Weather History for KI16 - October, 2019

Change the Weather History Date:

Thursday, October 17, 2019

  Actual Average (WUND) Record (WUND)
Temperature  
Mean Temperature 49 °F -  
Max Temperature 58 °F - - (-1)
Min Temperature 39 °F - - (-1)
Degree Days  
Heating Degree Days 16    
Moisture  
Dew Point 37 °F    
Average Humidity 67    
Maximum Humidity 92    
Minimum Humidity 39    
Precipitation  
Precipitation 0.00 in - - ()
Sea Level Pressure  
Sea Level Pressure 29.98 in    
Wind  
Wind Speed - (North)    
Max Wind Speed -    
Max Gust Speed -    
Visibility 10 miles    
Events      
Averages and records for this station are not official NWS values.
T = Trace of Precipitation, MM = Missing Value Source: NWS Daily Summary

Daily Weather History Graph

Daily Weather History Graph

Search for Another Location

Airport or City:

Astronomy

Oct. 17, 2019 Rise Set
Actual Time 7:36 AM EDT 6:46 PM EDT
Civil Twilight 7:09 AM EDT 7:12 PM EDT
Nautical Twilight 6:39 AM EDT 7:43 PM EDT
Astronomical Twilight 6:08 AM EDT 8:13 PM EDT
Moon 9:20 PM EDT (10/17) 11:03 AM EDT (10/17)
Length of Visible Light 12h 03m
Length of Day
11h 10m
Waning Gibbous, 87% of the Moon is Illuminated
Oct 17
Waning Gibbous
Oct 21
Last Quarter
Oct 27
New
Nov 4
First Quarter
Nov 12
Full

Hourly Weather History & Observations

Time (EDT) Temp. Dew Point Humidity Pressure Visibility Wind Dir Wind Speed Gust Speed Precip Events Conditions
12:15 AM 45.5 °F 40.1 °F 81% 29.98 in 10.0 mi North - - N/A   Overcast
12:35 AM 45.7 °F 39.6 °F 79% 29.97 in 10.0 mi North - - N/A   Overcast
12:55 AM 46.0 °F 39.2 °F 77% 29.96 in 10.0 mi North - - N/A   Overcast
1:15 AM 46.4 °F 38.5 °F 74% 29.96 in 10.0 mi North - - N/A   Overcast
1:35 AM 46.4 °F 38.7 °F 74% 29.96 in 10.0 mi North - - N/A   Overcast
1:55 AM 46.6 °F 37.9 °F 72% 29.96 in 10.0 mi North - - N/A   Overcast
2:15 AM 46.4 °F 37.9 °F 72% 29.96 in 10.0 mi North - - N/A   Unknown
2:35 AM 46.6 °F 37.9 °F 72% 29.96 in 10.0 mi North - - N/A   Unknown
2:55 AM 46.8 °F 37.9 °F 71% 29.95 in 10.0 mi North - - N/A   Unknown
3:15 AM 46.8 °F 38.1 °F 72% 29.95 in 10.0 mi North - - N/A   Unknown
3:35 AM 46.6 °F 38.7 °F 74% 29.95 in 10.0 mi North - - N/A   Unknown
3:55 AM 46.6 °F 38.3 °F 73% 29.95 in 10.0 mi North - - N/A   Unknown
4:15 AM 46.6 °F 38.5 °F 73% 29.95 in 10.0 mi North - - N/A   Unknown
4:35 AM 46.4 °F 38.3 °F 73% 29.94 in 10.0 mi North - - N/A   Overcast
4:55 AM 46.4 °F 37.8 °F 72% 29.94 in 10.0 mi North - - N/A   Overcast
5:15 AM 46.0 °F 37.9 °F 73% 29.94 in 10.0 mi North - - N/A   Overcast
5:35 AM 46.4 °F 37.6 °F 71% 29.95 in 10.0 mi North - - N/A   Overcast
5:55 AM 46.0 °F 37.6 °F 72% 29.95 in 10.0 mi North - - N/A   Overcast
6:15 AM 45.5 °F 37.2 °F 73% 29.95 in 10.0 mi North - - N/A   Unknown
6:35 AM 45.7 °F 36.9 °F 71% 29.96 in 10.0 mi North - - N/A   Unknown
6:55 AM 45.5 °F 36.7 °F 71% 29.96 in 10.0 mi North - - N/A   Unknown
7:15 AM 45.5 °F 37.0 °F 72% 29.97 in 10.0 mi North - - N/A   Unknown
7:35 AM 45.3 °F 37.4 °F 74% 29.98 in 10.0 mi North - - N/A   Unknown
7:55 AM 45.5 °F 37.4 °F 73% 29.98 in 10.0 mi North - - N/A   Unknown
8:15 AM 45.0 °F 37.8 °F 76% 29.98 in 10.0 mi North - - N/A   Unknown
8:35 AM 45.0 °F 38.3 °F 77% 29.99 in 10.0 mi North - - N/A   Unknown
8:55 AM 44.8 °F 38.5 °F 79% 30.00 in 10.0 mi North - - N/A   Unknown
9:15 AM 45.0 °F 38.3 °F 77% 30.00 in 10.0 mi North - - N/A   Unknown
9:35 AM 45.7 °F 38.1 °F 75% 30.00 in 10.0 mi North - - N/A   Overcast
9:55 AM 46.6 °F 38.1 °F 72% 30.00 in 10.0 mi North - - N/A   Overcast
10:15 AM 47.7 °F 37.8 °F 69% 30.01 in 10.0 mi North - - N/A   Overcast
10:35 AM 48.2 °F 37.6 °F 67% 30.01 in 10.0 mi North - - N/A   Overcast
10:55 AM 49.1 °F 37.4 °F 64% 30.01 in 10.0 mi North - - N/A   Overcast
11:15 AM 50.5 °F 37.9 °F 62% 30.00 in 10.0 mi North - - N/A   Unknown
11:35 AM 49.3 °F 37.0 °F 63% 30.00 in 10.0 mi North - - N/A   Unknown
11:55 AM 51.4 °F 37.2 °F 58% 30.00 in 10.0 mi North - - N/A   Unknown
12:15 PM 51.3 °F 37.0 °F 58% 30.00 in 10.0 mi North - - N/A   Unknown
12:35 PM 52.5 °F 36.3 °F 54% 30.00 in 10.0 mi North - - N/A   Unknown
12:55 PM 53.6 °F 36.7 °F 53% 29.99 in 10.0 mi North - - N/A   Unknown
1:15 PM 54.1 °F 36.1 °F 51% 29.98 in 10.0 mi North - - N/A   Unknown
1:35 PM 55.6 °F 36.5 °F 49% 29.97 in 10.0 mi North - - N/A   Scattered Clouds
1:55 PM 55.0 °F 35.1 °F 47% 29.97 in 10.0 mi North - - N/A   Scattered Clouds
2:15 PM 55.9 °F 36.0 °F 47% 29.96 in 10.0 mi North - - N/A   Scattered Clouds
2:40 PM 56.8 °F 35.4 °F 45% 29.96 in 10.0 mi North - - N/A   Scattered Clouds
2:55 PM 57.2 °F 35.1 °F 43% 29.95 in 10.0 mi North - - N/A   Scattered Clouds
3:15 PM 57.7 °F 34.9 °F 42% 29.95 in 10.0 mi North - - N/A   Mostly Cloudy
3:35 PM 57.6 °F 33.6 °F 41% 29.95 in 10.0 mi North - - N/A   Mostly Cloudy
3:55 PM 58.6 °F 34.3 °F 40% 29.95 in 10.0 mi North - - N/A   Scattered Clouds
4:15 PM 58.1 °F 33.3 °F 39% 29.95 in 10.0 mi North - - N/A   Scattered Clouds
4:35 PM 58.1 °F 33.1 °F 39% 29.95 in 10.0 mi North - - N/A   Scattered Clouds
4:55 PM 58.1 °F 33.6 °F 40% 29.95 in 10.0 mi North - - N/A   Scattered Clouds
5:15 PM 56.3 °F 34.9 °F 45% 29.96 in 10.0 mi North - - N/A   Scattered Clouds
5:35 PM 55.9 °F 34.3 °F 44% 29.96 in 10.0 mi North - - N/A   Mostly Cloudy
5:55 PM 55.4 °F 34.2 °F 45% 29.96 in 10.0 mi North - - N/A   Mostly Cloudy
6:15 PM 55.0 °F 34.2 °F 45% 29.96 in 10.0 mi North - - N/A   Scattered Clouds
6:35 PM 53.8 °F 35.1 °F 49% 29.97 in 10.0 mi North - - N/A   Scattered Clouds
6:55 PM 52.7 °F 37.2 °F 56% 29.97 in 10.0 mi North - - N/A   Clear
7:15 PM 51.6 °F 35.8 °F 55% 29.98 in 10.0 mi North - - N/A   Clear
7:35 PM 48.6 °F 38.1 °F 67% 29.98 in 10.0 mi North - - N/A   Clear
7:55 PM 46.4 °F 39.0 °F 75% 29.99 in 10.0 mi North - - N/A   Clear
8:15 PM 45.5 °F 40.1 °F 81% 30.00 in 10.0 mi North - - N/A   Scattered Clouds
8:35 PM 44.8 °F 39.0 °F 80% 30.01 in 10.0 mi North - - N/A   Mostly Cloudy
8:55 PM 45.0 °F 39.7 °F 82% 30.01 in 10.0 mi North - - N/A   Mostly Cloudy
9:15 PM 44.6 °F 39.6 °F 82% 30.02 in 10.0 mi North - - N/A   Overcast
9:35 PM 44.6 °F 40.1 °F 84% 30.02 in 10.0 mi North - - N/A   Mostly Cloudy
9:55 PM 43.9 °F 39.6 °F 85% 30.03 in 10.0 mi North - - N/A   Mostly Cloudy
10:15 PM 43.0 °F 39.4 °F 87% 30.04 in 10.0 mi North - - N/A   Scattered Clouds
10:35 PM 42.3 °F 39.2 °F 89% 30.04 in 10.0 mi North - - N/A   Unknown
10:55 PM 41.7 °F 39.0 °F 90% 30.05 in 10.0 mi North - - N/A   Unknown
11:15 PM 41.0 °F 38.3 °F 90% 30.04 in 10.0 mi North - - N/A   Unknown
11:35 PM 40.3 °F 37.8 °F 91% 30.05 in 10.0 mi North - - N/A   Unknown
11:55 PM 39.7 °F 37.6 °F 92% 30.05 in 10.0 mi North - - N/A   Clear